Time,TemperatureF,DewpointF,PressureIn,WindDirection,WindDirectionDegrees,WindSpeedMPH,WindSpeedGustMPH,Humidity,HourlyPrecipIn,Conditions,Clouds,dailyrainin,SoftwareType,DateUTC
2013-01-26 00:00:00,19.4,16.7,30.04,NNW,345,3.0,3.0,89,0.00,,,0.00,Wunderground v.1.15,2013-01-26 05:00:00,
2013-01-26 00:05:00,19.3,16.6,30.04,NNW,327,3.0,3.0,89,0.00,,,0.00,Wunderground v.1.15,2013-01-26 05:05:00,
2013-01-26 00:11:00,19.2,16.5,30.04,NNW,340,3.0,6.0,89,0.00,,,0.00,Wunderground v.1.15,2013-01-26 05:11:00,
2013-01-26 00:16:00,19.0,16.3,30.04,NNE,29,3.0,6.0,89,0.00,,,0.00,Wunderground v.1.15,2013-01-26 05:16:00,
2013-01-26 08:10:00,14.4,10.4,30.07,NW,323,6.0,7.0,84,0.00,,,0.00,Wunderground v.1.15,2013-01-26 13:10:00,
2013-01-26 08:15:00,14.7,10.5,30.08,NW,311,6.0,7.0,83,0.00,,,0.00,Wunderground v.1.15,2013-01-26 13:15:00,
2013-01-26 08:25:00,16.2,11.4,30.08,NW,306,7.0,10.0,81,0.00,,,0.00,Wunderground v.1.15,2013-01-26 13:25:00,
2013-01-26 08:30:00,16.5,11.7,30.08,NNW,342,5.0,5.0,81,0.00,,,0.00,Wunderground v.1.15,2013-01-26 13:30:00,
2013-01-26 08:35:00,16.6,11.2,30.08,NE,51,5.0,5.0,79,0.00,,,0.00,Wunderground v.1.15,2013-01-26 13:35:00,
2013-01-26 08:40:00,16.8,11.4,30.08,NE,53,4.0,6.0,79,0.00,,,0.00,Wunderground v.1.15,2013-01-26 13:40:00,
2013-01-26 08:45:00,17.1,11.4,30.08,NW,305,4.0,6.0,78,0.00,,,0.00,Wunderground v.1.15,2013-01-26 13:45:00,
2013-01-26 08:50:00,17.2,10.9,30.08,NNW,344,5.0,5.0,76,0.00,,,0.00,Wunderground v.1.15,2013-01-26 13:50:00,
2013-01-26 08:55:00,17.4,10.8,30.08,NNW,347,6.0,6.0,75,0.00,,,0.00,Wunderground v.1.15,2013-01-26 13:55:00,
2013-01-26 09:00:00,17.5,10.6,30.08,WNW,283,6.0,6.0,74,0.00,,,0.00,Wunderground v.1.15,2013-01-26 14:00:00,
2013-01-26 09:05:00,17.8,11.2,30.09,South,188,5.0,6.0,75,0.00,,,0.00,Wunderground v.1.15,2013-01-26 14:05:00,
2013-01-26 09:10:00,18.2,11.3,30.09,NNW,327,4.0,5.0,74,0.00,,,0.00,Wunderground v.1.15,2013-01-26 14:10:00,
2013-01-26 09:15:00,18.2,11.0,30.09,NW,308,4.0,5.0,73,0.00,,,0.00,Wunderground v.1.15,2013-01-26 14:15:00,
2013-01-26 09:20:00,18.3,10.8,30.09,NW,322,5.0,8.0,72,0.00,,,0.00,Wunderground v.1.15,2013-01-26 14:20:00,
2013-01-26 09:30:00,18.3,10.5,30.09,NE,40,6.0,6.0,71,0.00,,,0.00,Wunderground v.1.15,2013-01-26 14:30:00,
2013-01-26 09:35:00,18.8,10.9,30.09,NW,316,5.0,6.0,71,0.00,,,0.00,Wunderground v.1.15,2013-01-26 14:35:00,
2013-01-26 09:45:00,19.0,9.8,30.09,NW,317,6.0,10.0,67,0.00,,,0.00,Wunderground v.1.15,2013-01-26 14:45:00,
2013-01-26 09:50:00,18.9,9.7,30.09,NNW,340,8.0,9.0,67,0.00,,,0.00,Wunderground v.1.15,2013-01-26 14:50:00,
2013-01-26 09:55:00,19.0,9.5,30.09,NNW,333,8.0,13.0,66,0.00,,,0.00,Wunderground v.1.15,2013-01-26 14:55:00,
2013-01-26 10:00:00,19.2,9.7,30.09,WNW,300,8.0,9.0,66,0.00,,,0.00,Wunderground v.1.15,2013-01-26 15:00:00,
2013-01-26 10:05:00,19.4,9.9,30.09,North,350,8.0,10.0,66,0.00,,,0.00,Wunderground v.1.15,2013-01-26 15:05:00,
2013-01-26 10:10:00,19.7,9.8,30.09,WNW,295,8.0,8.0,65,0.00,,,0.00,Wunderground v.1.15,2013-01-26 15:10:00,
2013-01-26 10:15:00,20.1,10.6,30.08,NNW,330,7.0,8.0,66,0.00,,,0.00,Wunderground v.1.15,2013-01-26 15:15:00,
2013-01-26 10:20:00,20.2,10.3,30.08,NNW,336,6.0,8.0,65,0.00,,,0.00,Wunderground v.1.15,2013-01-26 15:20:00,
2013-01-26 10:25:00,20.4,10.1,30.08,NNW,346,6.0,14.0,64,0.00,,,0.00,Wunderground v.1.15,2013-01-26 15:25:00,
2013-01-26 10:30:00,20.6,10.3,30.08,WNW,296,6.0,6.0,64,0.00,,,0.00,Wunderground v.1.15,2013-01-26 15:30:00,
2013-01-26 10:35:00,20.7,9.7,30.08,WNW,300,6.0,6.0,62,0.00,,,0.00,Wunderground v.1.15,2013-01-26 15:35:00,
2013-01-26 10:40:00,21.1,10.5,30.08,North,11,6.0,7.0,63,0.00,,,0.00,Wunderground v.1.15,2013-01-26 15:40:00,
2013-01-26 10:45:00,21.4,10.7,30.08,West,278,6.0,7.0,63,0.00,,,0.00,Wunderground v.1.15,2013-01-26 15:45:00,
2013-01-26 10:50:00,21.5,10.1,30.08,North,358,6.0,6.0,61,0.00,,,0.00,Wunderground v.1.15,2013-01-26 15:50:00,
2013-01-26 10:55:00,21.9,10.5,30.08,NW,319,5.0,8.0,61,0.00,,,0.00,Wunderground v.1.15,2013-01-26 15:55:00,
2013-01-26 11:00:00,22.2,11.1,30.08,NE,47,5.0,6.0,62,0.00,,,0.00,Wunderground v.1.15,2013-01-26 16:00:00,
2013-01-26 11:06:00,22.5,11.4,30.08,West,281,5.0,7.0,62,0.00,,,0.00,Wunderground v.1.15,2013-01-26 16:06:00,
2013-01-26 11:15:00,22.6,10.8,30.08,NNW,330,6.0,7.0,60,0.00,,,0.00,Wunderground v.1.15,2013-01-26 16:15:00,
2013-01-26 11:21:00,22.4,9.8,30.08,WNW,293,6.0,8.0,58,0.00,,,0.00,Wunderground v.1.15,2013-01-26 16:21:00,
2013-01-26 11:30:00,22.8,11.0,30.07,NW,316,7.0,7.0,60,0.00,,,0.00,Wunderground v.1.15,2013-01-26 16:30:00,
2013-01-26 11:35:00,23.0,10.4,30.07,NW,319,5.0,7.0,58,0.00,,,0.00,Wunderground v.1.15,2013-01-26 16:35:00,
2013-01-26 11:40:00,22.9,9.5,30.07,WNW,298,6.0,6.0,56,0.00,,,0.00,Wunderground v.1.15,2013-01-26 16:40:00,
2013-01-26 11:45:00,23.0,10.0,30.07,NW,316,7.0,7.0,57,0.00,,,0.00,Wunderground v.1.15,2013-01-26 16:45:00,
2013-01-26 11:50:00,23.6,10.6,30.07,West,276,5.0,5.0,57,0.00,,,0.00,Wunderground v.1.15,2013-01-26 16:50:00,
2013-01-26 12:00:00,24.1,9.8,30.06,WNW,297,4.0,8.0,54,0.00,,,0.00,Wunderground v.1.15,2013-01-26 17:00:00,
2013-01-26 12:05:00,24.0,10.2,30.06,NW,322,5.0,8.0,55,0.00,,,0.00,Wunderground v.1.15,2013-01-26 17:05:00,
2013-01-26 12:10:00,24.0,10.2,30.06,NNW,334,6.0,10.0,55,0.00,,,0.00,Wunderground v.1.15,2013-01-26 17:10:00,
2013-01-26 12:20:00,24.3,10.8,30.06,NW,319,7.0,7.0,56,0.00,,,0.00,Wunderground v.1.15,2013-01-26 17:20:00,
2013-01-26 12:25:00,24.5,10.6,30.06,NNW,328,6.0,7.0,55,0.00,,,0.00,Wunderground v.1.15,2013-01-26 17:25:00,
2013-01-26 12:30:00,24.4,10.1,30.06,NW,326,6.0,10.0,54,0.00,,,0.00,Wunderground v.1.15,2013-01-26 17:30:00,
2013-01-26 12:35:00,24.1,10.2,30.06,WNW,297,6.0,10.0,55,0.00,,,0.00,Wunderground v.1.15,2013-01-26 17:35:00,
2013-01-26 12:40:00,24.4,10.5,30.06,NW,323,6.0,6.0,55,0.00,,,0.00,Wunderground v.1.15,2013-01-26 17:40:00,
2013-01-26 12:45:00,24.4,10.1,30.06,NW,313,5.0,6.0,54,0.00,,,0.00,Wunderground v.1.15,2013-01-26 17:45:00,
2013-01-26 12:56:00,24.6,10.7,30.06,North,1,5.0,5.0,55,0.00,,,0.00,Wunderground v.1.15,2013-01-26 17:56:00,
2013-01-26 13:01:00,24.8,10.5,30.06,NW,321,5.0,6.0,54,0.00,,,0.00,Wunderground v.1.15,2013-01-26 18:01:00,
2013-01-26 13:10:00,25.4,11.5,30.06,WNW,300,5.0,8.0,55,0.00,,,0.00,Wunderground v.1.15,2013-01-26 18:10:00,
2013-01-26 13:15:00,25.0,10.7,30.06,WNW,303,5.0,8.0,54,0.00,,,0.00,Wunderground v.1.15,2013-01-26 18:15:00,
2013-01-26 13:20:00,24.8,10.5,30.06,NNW,348,7.0,7.0,54,0.00,,,0.00,Wunderground v.1.15,2013-01-26 18:20:00,
2013-01-26 13:25:00,24.9,10.6,30.06,WNW,284,6.0,7.0,54,0.00,,,0.00,Wunderground v.1.15,2013-01-26 18:25:00,
2013-01-26 13:30:00,25.0,10.3,30.06,NW,304,6.0,6.0,53,0.00,,,0.00,Wunderground v.1.15,2013-01-26 18:30:00,
2013-01-26 13:35:00,24.9,10.2,30.06,WNW,303,7.0,8.0,53,0.00,,,0.00,Wunderground v.1.15,2013-01-26 18:35:00,
2013-01-26 13:40:00,25.0,10.3,30.06,WNW,300,7.0,7.0,53,0.00,,,0.00,Wunderground v.1.15,2013-01-26 18:40:00,
2013-01-26 13:45:00,25.0,10.3,30.06,NW,313,6.0,7.0,53,0.00,,,0.00,Wunderground v.1.15,2013-01-26 18:45:00,
2013-01-26 13:50:00,25.2,10.4,30.06,NW,315,6.0,11.0,53,0.00,,,0.00,Wunderground v.1.15,2013-01-26 18:50:00,
2013-01-26 14:00:00,25.3,10.1,30.05,WNW,285,6.0,9.0,52,0.00,,,0.00,Wunderground v.1.15,2013-01-26 19:00:00,
2013-01-26 14:05:00,25.5,10.3,30.05,NE,54,6.0,9.0,52,0.00,,,0.00,Wunderground v.1.15,2013-01-26 19:05:00,
2013-01-26 14:10:00,25.6,10.0,30.05,WNW,289,6.0,7.0,51,0.00,,,0.00,Wunderground v.1.15,2013-01-26 19:10:00,
2013-01-26 14:16:00,26.0,10.8,30.05,WSW,253,5.0,7.0,52,0.00,,,0.00,Wunderground v.1.15,2013-01-26 19:16:00,
2013-01-26 14:21:00,25.8,9.7,30.05,WNW,284,6.0,10.0,50,0.00,,,0.00,Wunderground v.1.15,2013-01-26 19:21:00,
2013-01-26 14:26:00,25.8,9.2,30.06,West,274,7.0,12.0,49,0.00,,,0.00,Wunderground v.1.15,2013-01-26 19:26:00,
2013-01-26 14:35:00,25.7,9.6,30.07,SW,217,8.0,8.0,50,0.00,,,0.00,Wunderground v.1.15,2013-01-26 19:35:00,
2013-01-26 14:40:00,26.1,9.1,30.07,WNW,303,6.0,6.0,48,0.00,,,0.00,Wunderground v.1.15,2013-01-26 19:40:00,
2013-01-26 14:45:00,26.1,9.1,30.07,NW,308,6.0,6.0,48,0.00,,,0.00,Wunderground v.1.15,2013-01-26 19:45:00,
2013-01-26 14:50:00,26.3,9.2,30.07,WNW,293,6.0,7.0,48,0.00,,,0.00,Wunderground v.1.15,2013-01-26 19:50:00,
2013-01-26 14:55:00,26.3,8.8,30.07,WNW,303,6.0,7.0,47,0.00,,,0.00,Wunderground v.1.15,2013-01-26 19:55:00,
2013-01-26 15:05:00,26.5,9.4,30.07,North,4,6.0,7.0,48,0.00,,,0.00,Wunderground v.1.15,2013-01-26 20:05:00,
2013-01-26 15:10:00,26.5,9.4,30.07,NW,323,7.0,7.0,48,0.00,,,0.00,Wunderground v.1.15,2013-01-26 20:10:00,
2013-01-26 15:15:00,26.6,10.4,30.07,West,266,7.0,7.0,50,0.00,,,0.00,Wunderground v.1.15,2013-01-26 20:15:00,
2013-01-26 15:20:00,26.6,10.4,30.07,West,281,7.0,7.0,50,0.00,,,0.00,Wunderground v.1.15,2013-01-26 20:20:00,
2013-01-26 15:25:00,26.7,10.5,30.08,NW,322,6.0,7.0,50,0.00,,,0.00,Wunderground v.1.15,2013-01-26 20:25:00,
2013-01-26 15:30:00,26.7,10.5,30.08,NNW,330,5.0,5.0,50,0.00,,,0.00,Wunderground v.1.15,2013-01-26 20:30:00,
2013-01-26 15:35:00,26.8,10.6,30.08,NW,323,6.0,9.0,50,0.00,,,0.00,Wunderground v.1.15,2013-01-26 20:35:00,
2013-01-26 15:40:00,26.9,10.3,30.08,NNW,328,6.0,6.0,49,0.00,,,0.00,Wunderground v.1.15,2013-01-26 20:40:00,
2013-01-26 15:45:00,26.7,9.6,30.09,WNW,297,6.0,7.0,48,0.00,,,0.00,Wunderground v.1.15,2013-01-26 20:45:00,
2013-01-26 15:50:00,26.8,10.2,30.09,West,276,6.0,6.0,49,0.00,,,0.00,Wunderground v.1.15,2013-01-26 20:50:00,
2013-01-26 15:55:00,26.7,9.6,30.09,WNW,294,6.0,9.0,48,0.00,,,0.00,Wunderground v.1.15,2013-01-26 20:55:00,
2013-01-26 16:00:00,26.7,9.6,30.09,NW,325,6.0,6.0,48,0.00,,,0.00,Wunderground v.1.15,2013-01-26 21:00:00,
2013-01-26 16:05:00,26.6,9.1,30.10,NNW,344,7.0,7.0,47,0.00,,,0.00,Wunderground v.1.15,2013-01-26 21:05:00,
2013-01-26 16:10:00,26.6,9.1,30.10,NNE,33,7.0,7.0,47,0.00,,,0.00,Wunderground v.1.15,2013-01-26 21:10:00,
2013-01-26 16:15:00,26.5,9.0,30.10,West,274,6.0,7.0,47,0.00,,,0.00,Wunderground v.1.15,2013-01-26 21:15:00,
2013-01-26 16:26:00,26.3,8.8,30.10,NW,308,6.0,13.0,47,0.00,,,0.00,Wunderground v.1.15,2013-01-26 21:26:00,
2013-01-26 16:31:00,26.3,8.8,30.11,WNW,289,6.0,6.0,47,0.00,,,0.00,Wunderground v.1.15,2013-01-26 21:31:00,
2013-01-26 16:40:00,26.2,8.2,30.11,NNW,334,4.0,4.0,46,0.00,,,0.00,Wunderground v.1.15,2013-01-26 21:40:00,
2013-01-26 16:45:00,25.9,7.4,30.11,WNW,293,4.0,4.0,45,0.00,,,0.00,Wunderground v.1.15,2013-01-26 21:45:00,
2013-01-26 16:50:00,25.5,7.6,30.12,WNW,303,5.0,5.0,46,0.00,,,0.00,Wunderground v.1.15,2013-01-26 21:50:00,
2013-01-26 16:55:00,25.3,7.9,30.12,WNW,303,5.0,5.0,47,0.00,,,0.00,Wunderground v.1.15,2013-01-26 21:55:00,
2013-01-26 17:00:00,24.8,7.9,30.12,WNW,294,5.0,10.0,48,0.00,,,0.00,Wunderground v.1.15,2013-01-26 22:00:00,
2013-01-26 17:05:00,24.5,7.1,30.13,NW,305,7.0,10.0,47,0.00,,,0.00,Wunderground v.1.15,2013-01-26 22:05:00,
2013-01-26 17:10:00,24.2,6.8,30.13,WNW,298,8.0,8.0,47,0.00,,,0.00,Wunderground v.1.15,2013-01-26 22:10:00,
2013-01-26 17:15:00,23.9,7.0,30.13,NNE,22,6.0,8.0,48,0.00,,,0.00,Wunderground v.1.15,2013-01-26 22:15:00,
2013-01-26 17:20:00,23.6,6.3,30.13,NW,322,5.0,6.0,47,0.00,,,0.00,Wunderground v.1.15,2013-01-26 22:20:00,
2013-01-26 17:25:00,23.5,6.2,30.14,NNW,336,5.0,8.0,47,0.00,,,0.00,Wunderground v.1.15,2013-01-26 22:25:00,
2013-01-26 17:30:00,23.4,6.1,30.14,NNE,20,6.0,6.0,47,0.00,,,0.00,Wunderground v.1.15,2013-01-26 22:30:00,
2013-01-26 17:40:00,23.2,6.4,30.14,NW,319,6.0,7.0,48,0.00,,,0.00,Wunderground v.1.15,2013-01-26 22:40:00,
2013-01-26 17:45:00,23.1,6.7,30.15,North,349,6.0,7.0,49,0.00,,,0.00,Wunderground v.1.15,2013-01-26 22:45:00,
2013-01-26 17:50:00,22.9,7.0,30.15,WNW,287,4.0,6.0,50,0.00,,,0.00,Wunderground v.1.15,2013-01-26 22:50:00,
2013-01-26 17:55:00,22.8,6.5,30.15,NW,316,5.0,10.0,49,0.00,,,0.00,Wunderground v.1.15,2013-01-26 22:55:00,
2013-01-26 18:00:00,22.7,6.4,30.15,NNE,19,7.0,7.0,49,0.00,,,0.00,Wunderground v.1.15,2013-01-26 23:00:00,
2013-01-26 18:05:00,22.6,6.7,30.15,NNW,345,7.0,8.0,50,0.00,,,0.00,Wunderground v.1.15,2013-01-26 23:05:00,
2013-01-26 18:10:00,22.4,6.5,30.16,WNW,290,6.0,6.0,50,0.00,,,0.00,Wunderground v.1.15,2013-01-26 23:10:00,
2013-01-26 18:21:00,22.2,6.4,30.16,WNW,293,6.0,10.0,50,0.00,,,0.00,Wunderground v.1.15,2013-01-26 23:21:00,
2013-01-26 18:30:00,22.0,6.2,30.17,NW,307,6.0,6.0,50,0.00,,,0.00,Wunderground v.1.15,2013-01-26 23:30:00,
2013-01-26 18:35:00,21.9,6.1,30.17,NW,319,5.0,6.0,50,0.00,,,0.00,Wunderground v.1.15,2013-01-26 23:35:00,
2013-01-26 18:40:00,21.8,6.0,30.18,WNW,303,4.0,5.0,50,0.00,,,0.00,Wunderground v.1.15,2013-01-26 23:40:00,
2013-01-26 18:45:00,21.7,5.5,30.18,NW,314,4.0,5.0,49,0.00,,,0.00,Wunderground v.1.15,2013-01-26 23:45:00,
2013-01-26 18:50:00,21.7,5.5,30.19,NNE,26,4.0,4.0,49,0.00,,,0.00,Wunderground v.1.15,2013-01-26 23:50:00,
2013-01-26 18:55:00,21.6,5.4,30.19,NW,307,4.0,5.0,49,0.00,,,0.00,Wunderground v.1.15,2013-01-26 23:55:00,
2013-01-26 19:00:00,21.5,5.7,30.19,WNW,297,3.0,4.0,50,0.00,,,0.00,Wunderground v.1.15,2013-01-27 00:00:00,
2013-01-26 19:05:00,21.5,5.7,30.19,West,277,3.0,5.0,50,0.00,,,0.00,Wunderground v.1.15,2013-01-27 00:05:00,
2013-01-26 19:10:00,21.4,5.6,30.20,NW,325,3.0,3.0,50,0.00,,,0.00,Wunderground v.1.15,2013-01-27 00:10:00,
2013-01-26 19:15:00,21.4,5.6,30.20,West,271,3.0,6.0,50,0.00,,,0.00,Wunderground v.1.15,2013-01-27 00:15:00,
2013-01-26 19:20:00,21.4,6.0,30.21,NW,319,3.0,3.0,51,0.00,,,0.00,Wunderground v.1.15,2013-01-27 00:20:00,
2013-01-26 19:26:00,21.4,6.0,30.21,WNW,290,3.0,3.0,51,0.00,,,0.00,Wunderground v.1.15,2013-01-27 00:26:00,
2013-01-26 19:31:00,21.5,6.1,30.20,West,266,4.0,4.0,51,0.00,,,0.00,Wunderground v.1.15,2013-01-27 00:31:00,
2013-01-26 19:40:00,21.4,6.0,30.21,NW,316,4.0,9.0,51,0.00,,,0.00,Wunderground v.1.15,2013-01-27 00:40:00,
2013-01-26 19:45:00,21.4,6.0,30.21,NW,307,5.0,9.0,51,0.00,,,0.00,Wunderground v.1.15,2013-01-27 00:45:00,
2013-01-26 19:50:00,21.2,5.9,30.20,NNE,12,4.0,6.0,51,0.00,,,0.00,Wunderground v.1.15,2013-01-27 00:50:00,
2013-01-26 19:55:00,21.3,6.0,30.21,NW,312,4.0,12.0,51,0.00,,,0.00,Wunderground v.1.15,2013-01-27 00:55:00,
2013-01-26 20:00:00,21.3,5.5,30.21,NW,309,8.0,8.0,50,0.00,,,0.00,Wunderground v.1.15,2013-01-27 01:00:00,
2013-01-26 20:05:00,21.2,5.9,30.21,NW,311,6.0,8.0,51,0.00,,,0.00,Wunderground v.1.15,2013-01-27 01:05:00,
2013-01-26 20:10:00,21.1,5.8,30.21,WNW,287,5.0,5.0,51,0.00,,,0.00,Wunderground v.1.15,2013-01-27 01:10:00,
2013-01-26 20:20:00,20.9,6.0,30.21,NW,317,4.0,5.0,52,0.00,,,0.00,Wunderground v.1.15,2013-01-27 01:20:00,
2013-01-26 20:30:00,20.8,6.3,30.21,NW,320,5.0,5.0,53,0.00,,,0.00,Wunderground v.1.15,2013-01-27 01:30:00,
2013-01-26 20:35:00,20.7,6.2,30.21,WNW,285,5.0,5.0,53,0.00,,,0.00,Wunderground v.1.15,2013-01-27 01:35:00,
2013-01-26 20:40:00,20.6,6.2,30.22,NW,311,5.0,5.0,53,0.00,,,0.00,Wunderground v.1.15,2013-01-27 01:40:00,
2013-01-26 20:50:00,20.4,6.4,30.22,NNW,336,5.0,5.0,54,0.00,,,0.00,Wunderground v.1.15,2013-01-27 01:50:00,
2013-01-26 20:55:00,20.3,6.3,30.22,NW,305,3.0,6.0,54,0.00,,,0.00,Wunderground v.1.15,2013-01-27 01:55:00,
2013-01-26 21:05:00,20.0,6.4,30.23,North,1,3.0,3.0,55,0.00,,,0.00,Wunderground v.1.15,2013-01-27 02:05:00,
2013-01-26 21:11:00,19.9,6.3,30.23,WNW,297,3.0,5.0,55,0.00,,,0.00,Wunderground v.1.15,2013-01-27 02:11:00,
2013-01-26 21:20:00,19.7,6.1,30.23,NNW,330,4.0,7.0,55,0.00,,,0.00,Wunderground v.1.15,2013-01-27 02:20:00,
2013-01-26 21:25:00,19.7,6.1,30.24,NNW,332,4.0,8.0,55,0.00,,,0.00,Wunderground v.1.15,2013-01-27 02:25:00,
2013-01-26 21:30:00,19.7,6.1,30.24,NW,312,5.0,5.0,55,0.00,,,0.00,Wunderground v.1.15,2013-01-27 02:30:00,
2013-01-26 21:35:00,19.6,6.4,30.24,WNW,283,5.0,5.0,56,0.00,,,0.00,Wunderground v.1.15,2013-01-27 02:35:00,
2013-01-26 21:40:00,19.5,6.3,30.25,NNW,330,3.0,6.0,56,0.00,,,0.00,Wunderground v.1.15,2013-01-27 02:40:00,
2013-01-26 21:45:00,19.4,6.2,30.25,WNW,303,3.0,8.0,56,0.00,,,0.00,Wunderground v.1.15,2013-01-27 02:45:00,
2013-01-26 21:50:00,19.3,6.1,30.25,NNW,327,3.0,3.0,56,0.00,,,0.00,Wunderground v.1.15,2013-01-27 02:50:00,
2013-01-26 22:00:00,19.2,6.1,30.25,North,350,4.0,5.0,56,0.00,,,0.00,Wunderground v.1.15,2013-01-27 03:00:00,
2013-01-26 22:05:00,19.3,5.7,30.26,NW,312,5.0,5.0,55,0.00,,,0.00,Wunderground v.1.15,2013-01-27 03:05:00,
2013-01-26 22:10:00,19.3,5.7,30.26,NW,313,5.0,5.0,55,0.00,,,0.00,Wunderground v.1.15,2013-01-27 03:10:00,
2013-01-26 22:15:00,19.3,5.7,30.26,NW,312,5.0,6.0,55,0.00,,,0.00,Wunderground v.1.15,2013-01-27 03:15:00,
2013-01-26 22:25:00,19.3,5.7,30.27,WSW,253,5.0,5.0,55,0.00,,,0.00,Wunderground v.1.15,2013-01-27 03:25:00,
2013-01-26 22:30:00,19.1,5.6,30.27,NW,309,4.0,7.0,55,0.00,,,0.00,Wunderground v.1.15,2013-01-27 03:30:00,
2013-01-26 22:35:00,19.0,5.5,30.27,NW,325,4.0,4.0,55,0.00,,,0.00,Wunderground v.1.15,2013-01-27 03:35:00,
2013-01-26 22:45:00,18.9,5.8,30.28,NW,316,4.0,4.0,56,0.00,,,0.00,Wunderground v.1.15,2013-01-27 03:45:00,
2013-01-26 22:50:00,18.8,5.7,30.28,NW,323,4.0,9.0,56,0.00,,,0.00,Wunderground v.1.15,2013-01-27 03:50:00,
2013-01-26 22:55:00,18.6,5.5,30.28,West,278,3.0,3.0,56,0.00,,,0.00,Wunderground v.1.15,2013-01-27 03:55:00,
2013-01-26 23:00:00,18.6,5.5,30.28,NW,306,4.0,8.0,56,0.00,,,0.00,Wunderground v.1.15,2013-01-27 04:00:00,
2013-01-26 23:05:00,18.6,5.1,30.28,WNW,302,5.0,8.0,55,0.00,,,0.00,Wunderground v.1.15,2013-01-27 04:05:00,
2013-01-26 23:10:00,18.6,5.1,30.28,WNW,299,5.0,5.0,55,0.00,,,0.00,Wunderground v.1.15,2013-01-27 04:10:00,
2013-01-26 23:15:00,18.5,5.0,30.29,WNW,298,5.0,5.0,55,0.00,,,0.00,Wunderground v.1.15,2013-01-27 04:15:00,
2013-01-26 23:20:00,18.5,5.0,30.29,WNW,287,5.0,5.0,55,0.00,,,0.00,Wunderground v.1.15,2013-01-27 04:20:00,
2013-01-26 23:25:00,18.4,4.9,30.29,WNW,297,5.0,5.0,55,0.00,,,0.00,Wunderground v.1.15,2013-01-27 04:25:00,
2013-01-26 23:30:00,18.5,5.0,30.29,WNW,302,5.0,5.0,55,0.00,,,0.00,Wunderground v.1.15,2013-01-27 04:30:00,
2013-01-26 23:35:00,18.4,4.9,30.29,WNW,291,6.0,6.0,55,0.00,,,0.00,Wunderground v.1.15,2013-01-27 04:35:00,
2013-01-26 23:40:00,18.3,4.8,30.29,WSW,253,5.0,5.0,55,0.00,,,0.00,Wunderground v.1.15,2013-01-27 04:40:00,
2013-01-26 23:45:00,18.2,5.1,30.30,WSW,256,3.0,5.0,56,0.00,,,0.00,Wunderground v.1.15,2013-01-27 04:45:00,
2013-01-26 23:55:00,18.0,4.9,30.30,NW,319,4.0,4.0,56,0.00,,,0.00,Wunderground v.1.15,2013-01-27 04:55:00,